Temp
-15 -15 -15 -15 -16 -16 -16 -17 -17 -17 -17 -18 -18 -18 -18 -18 -18 -18 -18 -18 -18 -18 -18 -18 -19 -19 -19 -19 -19 -18 -18 -18 -17 -17 -17 -16 -16 -16 -15 -15 -15 -15
-15 -15 -15 -15 -15 -16 -16 -16 -17 -17 -17 -17 -18 -18 -18 -18 -18 -18 -19 -19 -19 -19 -19 -19 -19 -19 -19 -19 -19 -19 -19 -19 -18 -18 -17 -17 -17 -17 -16 -16 -16 -15
-15 -15 -15 -15 -15 -16 -16 -16 -17 -17 -17 -17 -18 -18 -18 -18 -18 -18 -19 -19 -19 -19 -19 -19 -19 -19 -19 -19 -19 -19 -19 -19 -19 -19 -18 -18 -17 -17 -17 -17 -16 -16
-15 -15 -15 -15 -15 -16 -16 -16 -17 -17 -17 -17 -18 -18 -18 -18 -18 -19 -19 -19 -19 -19 -19 -19 -19 -19 -19 -20 -20 -20 -20 -20 -20 -20 -19 -19 -18 -18 -18 -18 -17 -17
-15 -15 -15 -15 -15 -15 -16 -16 -16 -17 -17 -17 -18 -18 -18 -18 -19 -19 -19 -19 -19 -19 -19 -19 -19 -19 -19 -20 -20 -20 -20 -20 -20 -20 -20 -19 -19 -18 -18 -18 -18 -18
-15 -15 -15 -15 -15 -15 -16 -16 -16 -17 -17 -17 -18 -18 -18 -18 -19 -19 -19 -19 -19 -19 -19 -19 -19 -19 -19 -20 -20 -20 -20 -20 -20 -20 -20 -20 -20 -19 -18 -18 -18 -18
-15 -15 -15 -15 -15 -15 -15 -16 -16 -17 -17 -17 -18 -18 -18 -18 -18 -19 -19 -19 -19 -19 -19 -19 -19 -19 -19 -20 -20 -20 -20 -20 -20 -20 -20 -20 -19 -19 -19 -18 -18 -17
-15 -15 -15 -15 -15 -15 -15 -15 -16 -16 -17 -17 -17 -18 -18 -18 -18 -18 -19 -19 -19 -19 -19 -19 -19 -19 -19 -19 -20 -20 -20 -20 -20 -20 -20 -20 -19 -19 -19 -18 -18 -17
-15 -15 -15 -15 -15 -15 -15 -15 -16 -16 -16 -17 -17 -18 -18 -18 -18 -18 -19 -19 -19 -19 -19 -19 -19 -19 -19 -19 -20 -20 -20 -20 -20 -19 -19 -19 -19 -19 -19 -18 -17 -17
-15 -15 -15 -15 -15 -15 -15 -15 -15 -16 -16 -16 -17 -17 -18 -18 -18 -18 -18 -19 -19 -19 -19 -19 -19 -19 -19 -19 -19 -20 -20 -20 -20 -20 -19 -19 -18 -18 -18 -18 -17 -17
-15 -15 -15 -15 -15 -15 -15 -15 -15 -16 -16 -16 -17 -17 -18 -18 -18 -18 -18 -19 -19 -19 -19 -19 -19 -19 -19 -19 -19 -19 -20 -20 -20 -20 -19 -19 -18 -18 -17 -17 -17 -17
-15 -15 -15 -15 -15 -15 -15 -15 -15 -15 -16 -16 -16 -17 -17 -18 -18 -18 -18 -19 -19 -19 -19 -19 -19 -19 -19 -19 -19 -19 -19 -20 -20 -20 -19 -19 -19 -18 -18 -17 -17 -17
-15 -15 -15 -16 -16 -16 -15 -15 -15 -16 -16 -16 -16 -16 -17 -17 -18 -18 -18 -19 -19 -19 -19 -19 -19 -19 -19 -19 -19 -19 -19 -20 -20 -20 -19 -19 -19 -19 -18 -18 -17 -17
-15 -15 -15 -16 -16 -16 -16 -16 -16 -16 -16 -16 -16 -16 -17 -17 -17 -18 -18 -18 -19 -19 -19 -19 -19 -19 -19 -19 -19 -19 -19 -19 -20 -20 -20 -20 -20 -19 -19 -18 -18 -17
-15 -16 -16 -16 -16 -16 -16 -16 -16 -16 -16 -16 -16 -16 -17 -17 -17 -18 -18 -18 -19 -19 -19 -19 -19 -19 -19 -19 -19 -19 -19 -19 -20 -20 -19 -19 -20 -20 -19 -19 -19 -18
-16 -16 -16 -16 -16 -16 -16 -16 -16 -16 -16 -16 -16 -16 -17 -17 -17 -18 -18 -18 -18 -19 -19 -19 -19 -19 -19 -19 -19 -19 -19 -19 -19 -20 -20 -19 -19 -20 -20 -19 -19 -19
-16 -16 -16 -16 -16 -16 -16 -16 -16 -16 -16 -16 -16 -17 -17 -17 -17 -17 -18 -18 -18 -19 -19 -19 -19 -19 -19 -19 -19 -19 -19 -19 -19 -19 -20 -20 -20 -19 -20 -20 -20 -19
-16 -16 -16 -17 -17 -17 -17 -17 -17 -17 -16 -17 -17 -17 -17 -17 -17 -17 -18 -18 -18 -19 -19 -19 -19 -19 -19 -19 -19 -19 -20 -19 -19 -19 -19 -20 -20 -20 -20 -20 -20 -20
-16 -16 -16 -17 -17 -17 -17 -17 -17 -17 -17 -17 -17 -17 -17 -17 -17 -17 -17 -18 -18 -19 -19 -19 -20 -20 -19 -19 -19 -20 -20 -20 -20 -19 -19 -19 -20 -20 -20 -20 -20 -20
-16 -16 -16 -17 -17 -17 -17 -17 -17 -17 -17 -17 -17 -17 -17 -17 -17 -17 -18 -18 -18 -19 -19 -19 -20 -20 -19 -19 -20 -20 -21 -21 -21 -21 -20 -20 -20 -20 -20 -21 -21 -21
-16 -16 -16 -17 -17 -17 -17 -17 -17 -17 -17 -17 -17 -17 -18 -18 -18 -18 -18 -18 -18 -18 -19 -19 -20 -20 -20 -20 -20 -21 -21 -21 -22 -22 -21 -21 -20 -20 -20 -20 -21 -21
-16 -16 -16 -17 -17 -17 -17 -17 -17 -18 -18 -18 -18 -18 -18 -18 -18 -18 -18 -18 -18 -19 -19 -19 -20 -20 -20 -20 -20 -21 -21 -22 -23 -22 -21 -21 -21 -21 -20 -20 -20 -20
-16 -16 -17 -17 -17 -17 -17 -17 -18 -18 -18 -18 -18 -18 -18 -18 -18 -18 -18 -18 -19 -19 -19 -19 -20 -20 -20 -20 -20 -21 -22 -22 -22 -22 -21 -21 -21 -21 -21 -21 -20 -20
-16 -16 -17 -17 -17 -17 -17 -17 -18 -18 -18 -18 -18 -18 -18 -18 -18 -18 -19 -19 -19 -19 -19 -19 -20 -20 -20 -20 -20 -21 -21 -21 -21 -21 -21 -21 -21 -21 -21 -20 -20 -20
-16 -16 -17 -17 -17 -17 -17 -17 -17 -18 -18 -18 -18 -18 -19 -19 -18 -19 -19 -19 -19 -19 -19 -19 -20 -20 -20 -20 -20 -21 -21 -21 -21 -21 -21 -21 -21 -21 -21 -21 -21 -20
-16 -16 -16 -17 -17 -17 -17 -17 -17 -18 -18 -19 -19 -19 -19 -19 -19 -19 -19 -20 -20 -20 -20 -20 -20 -20 -20 -20 -20 -20 -21 -21 -21 -21 -21 -21 -21 -21 -21 -21 -21 -21
Height
2946 2944 2942 2940 2938 2936 2934 2932 2931 2929 2928 2927 2926 2924 2923 2922 2921 2920 2919 2917 2915 2913 2911 2909 2907 2905 2902 2900 2897 2895 2893 2891 2889 2889 2889 2890 2892 2894 2896 2899 2900 2901
2944 2942 2940 2938 2936 2934 2932 2931 2929 2927 2926 2924 2923 2922 2921 2919 2918 2917 2916 2914 2912 2910 2908 2905 2903 2901 2898 2896 2893 2890 2888 2886 2884 2883 2882 2882 2884 2886 2889 2891 2893 2895
2941 2940 2938 2937 2935 2933 2930 2929 2927 2925 2923 2922 2920 2919 2918 2917 2915 2914 2912 2911 2909 2907 2904 2902 2900 2897 2895 2892 2889 2886 2883 2881 2879 2877 2876 2876 2876 2878 2881 2883 2886 2888
2938 2937 2936 2934 2932 2931 2928 2926 2925 2923 2921 2919 2918 2916 2915 2914 2912 2911 2909 2907 2906 2904 2902 2900 2897 2895 2892 2889 2886 2883 2880 2877 2875 2873 2871 2871 2871 2872 2874 2876 2879 2881
2935 2934 2932 2931 2930 2928 2926 2924 2922 2920 2919 2917 2915 2914 2912 2911 2909 2908 2907 2905 2903 2901 2899 2897 2895 2892 2890 2887 2884 2881 2877 2874 2871 2869 2867 2867 2867 2867 2868 2870 2872 2875
2932 2931 2929 2928 2927 2925 2923 2921 2920 2918 2916 2915 2913 2911 2909 2908 2907 2905 2904 2902 2901 2899 2897 2895 2893 2890 2887 2885 2882 2879 2875 2872 2869 2866 2864 2864 2863 2863 2864 2865 2867 2869
2929 2927 2926 2924 2923 2922 2920 2918 2917 2915 2914 2912 2910 2909 2907 2905 2904 2903 2901 2900 2898 2896 2894 2892 2890 2888 2885 2882 2879 2877 2874 2871 2868 2865 2862 2861 2860 2860 2861 2861 2863 2864
2925 2923 2922 2921 2919 2918 2917 2915 2914 2912 2911 2909 2908 2906 2904 2903 2901 2900 2898 2896 2895 2893 2891 2889 2887 2885 2882 2880 2877 2875 2872 2869 2866 2864 2861 2860 2858 2858 2858 2858 2859 2861
2921 2920 2918 2917 2915 2914 2913 2912 2910 2909 2907 2906 2905 2903 2901 2900 2898 2897 2895 2893 2892 2890 2888 2886 2884 2882 2880 2877 2875 2873 2870 2868 2865 2863 2860 2859 2857 2857 2856 2856 2857 2859
2916 2915 2914 2913 2911 2910 2909 2908 2906 2905 2904 2902 2901 2900 2898 2897 2895 2893 2892 2890 2888 2887 2885 2883 2881 2879 2877 2875 2873 2870 2868 2866 2864 2862 2859 2858 2857 2856 2855 2855 2856 2858
2912 2911 2910 2909 2907 2906 2905 2903 2902 2901 2900 2899 2898 2896 2895 2893 2892 2890 2888 2887 2885 2883 2882 2880 2878 2877 2875 2872 2870 2868 2866 2864 2862 2861 2859 2857 2856 2855 2855 2855 2856 2857
2907 2906 2905 2904 2903 2902 2900 2899 2898 2897 2896 2895 2894 2892 2891 2890 2888 2887 2885 2884 2882 2880 2879 2877 2875 2873 2872 2870 2868 2866 2864 2862 2861 2859 2858 2856 2855 2855 2854 2854 2855 2855
2902 2901 2900 2899 2898 2897 2896 2895 2894 2893 2892 2891 2890 2888 2887 2886 2884 2883 2882 2880 2879 2877 2876 2874 2872 2870 2868 2867 2865 2863 2861 2860 2859 2858 2856 2855 2854 2853 2853 2853 2853 2853
2898 2897 2895 2894 2893 2892 2891 2890 2889 2888 2887 2886 2885 2884 2883 2882 2880 2879 2878 2876 2875 2874 2873 2871 2869 2867 2865 2863 2862 2860 2859 2857 2856 2855 2855 2854 2853 2852 2851 2851 2850 2851
2893 2892 2890 2889 2888 2887 2886 2885 2884 2883 2882 2882 2881 2880 2879 2877 2876 2875 2874 2873 2872 2870 2869 2867 2866 2864 2862 2860 2859 2857 2856 2855 2854 2853 2852 2852 2851 2850 2849 2849 2848 2848
2888 2887 2885 2884 2883 2882 2881 2880 2879 2878 2877 2877 2876 2875 2874 2873 2872 2871 2869 2869 2868 2867 2866 2864 2862 2860 2858 2857 2856 2854 2853 2852 2851 2850 2849 2849 2849 2848 2848 2847 2846 2846
2883 2882 2880 2879 2878 2877 2876 2875 2874 2873 2872 2872 2871 2870 2870 2869 2868 2867 2865 2864 2864 2864 2862 2861 2859 2857 2855 2854 2852 2851 2850 2850 2849 2848 2847 2846 2846 2846 2846 2845 2845 2844
2879 2878 2876 2875 2873 2872 2871 2870 2869 2869 2868 2867 2866 2866 2865 2864 2863 2862 2861 2860 2860 2860 2859 2857 2855 2853 2852 2851 2850 2848 2847 2846 2845 2845 2845 2844 2844 2843 2843 2843 2843 2842
2875 2873 2872 2870 2868 2867 2866 2865 2864 2864 2863 2862 2861 2861 2860 2860 2859 2858 2857 2856 2855 2856 2855 2854 2852 2850 2849 2848 2847 2846 2845 2843 2842 2842 2841 2842 2842 2841 2841 2840 2840 2840
2872 2870 2868 2866 2864 2862 2861 2860 2860 2859 2858 2857 2857 2856 2855 2855 2854 2853 2853 2852 2851 2852 2852 2850 2848 2847 2846 2845 2844 2844 2842 2841 2840 2839 2838 2838 2838 2838 2838 2838 2837 2837
2868 2866 2864 2862 2860 2858 2857 2855 2855 2854 2853 2853 2852 2852 2851 2850 2850 2849 2849 2848 2847 2848 2848 2847 2845 2844 2843 2843 2842 2841 2840 2839 2837 2836 2836 2835 2835 2835 2835 2835 2834 2834
2864 2863 2861 2858 2856 2854 2852 2851 2850 2849 2848 2848 2847 2847 2846 2845 2845 2844 2844 2844 2843 2844 2844 2844 2842 2841 2841 2840 2840 2838 2837 2836 2835 2833 2832 2832 2832 2832 2831 2831 2831 2831
2861 2859 2857 2855 2852 2850 2848 2847 2845 2845 2844 2843 2842 2842 2841 2841 2840 2840 2840 2840 2839 2840 2841 2841 2839 2838 2838 2837 2837 2835 2834 2832 2831 2830 2829 2829 2829 2828 2828 2828 2828 2827
2857 2855 2853 2851 2849 2847 2844 2843 2841 2840 2839 2838 2838 2837 2837 2836 2836 2836 2835 2835 2835 2836 2836 2837 2836 2835 2835 2834 2833 2832 2830 2829 2828 2827 2827 2827 2826 2826 2825 2825 2825 2825
2853 2851 2849 2847 2845 2843 2841 2839 2837 2836 2835 2834 2833 2833 2832 2832 2831 2831 2831 2831 2831 2832 2832 2833 2833 2832 2831 2831 2830 2828 2827 2826 2826 2825 2824 2824 2824 2824 2823 2823 2822 2822
2850 2848 2846 2844 2842 2839 2837 2835 2834 2832 2831 2830 2830 2829 2828 2828 2827 2827 2827 2827 2827 2828 2828 2829 2830 2829 2828 2827 2827 2825 2825 2824 2823 2822 2822 2821 2821 2821 2820 2820 2819 2818
Wind_Speed
16 15 15 14 13 12 11 10 10 10 10 11 11 11 11 11 13 14 15 17 18 20 21 22 23 24 25 25 26 27 29 33 37 40 43 46 47 48 48 49 51 53
16 16 15 15 15 14 14 13 12 11 11 12 11 11 12 13 14 15 16 18 19 21 23 24 25 26 27 27 27 27 26 28 32 36 40 43 45 46 47 48 50 52
16 16 17 17 17 16 16 15 14 13 13 12 12 12 13 14 15 16 17 19 20 21 23 25 27 27 27 28 29 28 26 26 27 31 35 39 42 43 44 45 48 50
16 17 17 18 18 18 17 17 16 15 14 14 14 13 14 15 16 17 18 19 20 22 23 25 27 28 28 28 29 29 27 25 24 26 30 34 37 39 41 42 45 47
18 18 18 19 19 19 19 18 17 17 16 16 15 15 15 16 17 18 19 19 21 22 23 25 27 28 28 27 27 28 27 25 22 22 24 28 31 34 36 38 40 42
20 19 19 19 20 20 20 19 19 18 18 17 17 17 17 17 18 19 19 20 21 22 23 25 26 28 28 27 26 26 26 24 21 19 19 21 25 28 31 32 35 37
21 21 21 20 21 21 21 20 20 20 19 19 19 18 18 19 19 20 20 21 21 23 24 25 26 27 28 28 27 26 25 24 21 17 14 15 18 22 25 27 29 31
23 23 23 22 22 22 22 22 21 21 21 21 20 20 20 20 21 21 21 22 23 24 25 25 26 27 27 27 27 25 24 24 22 17 13 11 12 15 19 22 24 26
25 24 25 24 23 23 23 23 23 22 22 22 22 22 22 22 22 22 22 23 24 25 25 25 26 26 26 27 26 25 23 23 23 20 15 11 9 9 12 15 17 19
26 26 26 26 25 25 25 25 25 24 24 24 24 24 24 24 24 24 23 24 24 25 25 25 25 25 25 26 26 25 23 21 21 20 17 13 10 9 9 11 13 14
27 27 27 27 27 27 27 27 27 26 26 25 25 25 25 26 26 25 24 24 24 25 25 25 24 23 24 25 26 24 22 20 20 18 16 14 12 11 10 11 12 13
28 28 28 28 28 28 28 28 28 28 27 27 27 27 27 27 27 26 26 25 24 25 25 25 23 22 23 24 25 23 20 19 19 17 15 13 12 11 11 12 13 15
28 28 28 28 29 29 29 29 29 29 29 28 28 28 28 28 28 28 27 26 25 24 24 24 22 21 23 24 24 22 19 17 17 17 15 13 11 10 11 12 13 15
27 27 28 28 29 29 29 29 30 30 30 29 29 29 29 29 28 28 27 27 26 24 23 23 21 21 23 24 23 20 17 15 16 16 15 13 12 10 10 11 12 13
28 28 28 28 28 29 29 30 30 30 30 30 29 29 29 29 29 28 27 27 25 24 22 21 21 21 23 23 21 19 16 15 15 16 16 14 13 11 10 9 10 11
29 29 28 28 28 28 29 29 29 29 30 30 29 29 29 29 29 28 28 26 24 22 21 20 20 21 22 22 20 18 16 16 15 16 17 16 14 13 11 10 10 10
28 29 29 28 28 28 28 28 29 29 29 29 29 29 29 28 28 28 28 27 24 22 20 20 20 21 21 21 20 19 18 17 15 15 16 18 17 15 13 12 12 11
27 28 28 28 28 28 28 28 28 28 28 28 28 28 28 28 28 28 28 28 25 22 20 19 20 20 21 20 20 19 19 18 16 14 14 16 18 18 16 14 14 13
26 26 27 28 28 28 28 28 27 27 27 27 27 27 27 27 27 28 27 27 26 22 19 19 19 20 20 19 18 18 18 18 16 14 12 12 14 17 18 17 16 16
26 26 26 26 27 28 28 28 28 27 26 26 26 26 26 26 27 27 27 26 26 22 19 18 20 20 19 18 17 15 14 14 14 13 12 11 11 13 15 17 18 19
26 25 25 25 26 27 28 28 28 27 26 26 25 24 25 25 26 26 26 26 25 22 18 18 19 20 18 16 15 14 12 11 13 15 13 12 12 12 13 15 18 20
26 25 24 24 25 25 26 27 27 27 26 26 25 24 24 24 24 25 25 25 24 22 18 17 19 20 18 16 15 14 11 10 14 18 17 14 13 14 14 15 16 19
25 25 24 24 24 24 24 25 25 25 26 26 25 24 23 24 23 24 24 23 23 21 17 16 18 19 18 17 16 14 12 13 16 19 19 17 15 15 16 17 17 18
25 25 24 24 24 23 23 24 24 24 24 25 25 24 23 23 23 23 23 22 22 21 18 16 17 18 18 17 16 15 16 18 18 19 19 18 17 17 18 18 18 18
25 25 24 24 24 23 22 23 23 23 23 23 23 23 22 23 23 22 22 22 21 20 18 16 16 17 18 17 16 17 18 19 20 21 20 18 18 19 19 19 19 19
24 24 24 23 23 23 22 22 22 22 22 22 22 22 21 22 22 21 21 21 21 20 19 17 16 16 17 17 16 16 18 20 22 22 20 18 18 19 19 19 19 18
Wind_Direction
324 324 325 325 325 325 327 326 323 322 321 323 327 327 326 326 328 331 332 334 334 334 334 333 332 330 328 324 314 300 286 276 269 263 258 254 250 247 244 241 241 241
319 319 319 319 319 318 318 319 317 317 317 318 321 323 323 323 325 328 331 334 336 336 337 336 333 331 330 329 325 314 300 284 273 266 260 256 252 249 246 242 240 240
312 314 315 315 315 313 312 313 312 312 312 310 313 316 317 318 320 323 326 330 333 335 337 337 335 332 329 329 329 324 312 295 279 269 261 257 253 250 247 243 241 240
305 308 311 311 311 310 309 308 307 308 308 305 306 309 310 313 315 317 320 324 328 331 334 335 335 333 330 328 329 328 321 307 289 274 263 257 253 251 248 245 242 240
298 302 305 307 308 308 307 306 304 304 303 301 301 302 304 307 309 311 314 318 322 326 329 331 333 332 331 328 327 329 327 317 301 282 268 259 254 251 249 246 244 241
291 295 299 302 304 305 305 304 303 301 299 298 297 298 300 301 302 303 307 311 316 320 324 326 328 330 330 329 327 328 330 325 312 295 279 266 256 251 248 246 244 242
287 288 292 296 299 302 303 302 302 300 297 296 295 295 296 296 297 298 301 305 310 315 318 322 323 325 328 329 327 326 329 330 323 311 295 277 261 252 248 244 241 239
283 284 287 290 293 297 299 299 299 298 296 295 294 293 293 293 294 295 297 301 305 310 314 317 320 321 324 328 328 325 326 330 330 324 313 295 273 257 249 244 240 236
280 280 282 285 288 291 293 294 295 295 295 295 294 292 292 292 293 293 295 298 302 306 311 314 317 318 320 324 327 325 323 326 330 330 325 314 295 269 252 244 239 235
280 279 279 281 283 286 289 290 292 292 292 293 293 292 292 291 292 293 294 296 300 303 307 311 314 315 316 319 324 325 321 320 326 330 328 321 307 286 262 247 238 232
281 280 278 279 280 282 285 287 288 290 289 290 290 289 290 290 291 292 293 294 297 300 304 308 311 312 313 315 319 323 321 316 319 327 328 322 310 292 271 253 241 234
282 281 280 280 280 280 282 284 285 287 287 288 288 287 287 288 289 291 292 294 295 298 301 305 309 310 309 311 315 320 319 312 310 317 323 321 312 298 279 263 251 242
283 282 281 280 280 280 281 282 283 284 285 286 286 286 286 286 287 288 291 293 294 296 299 302 306 307 306 309 313 317 316 308 303 306 313 316 312 301 285 271 260 251
285 283 282 281 280 281 281 281 282 283 284 284 284 285 285 285 286 286 288 290 292 294 296 299 304 305 304 309 314 315 312 304 296 294 300 306 308 303 293 281 271 261
286 285 284 283 282 282 281 281 282 282 283 284 284 284 284 285 286 286 286 287 289 292 294 298 301 302 304 310 314 312 308 303 294 288 288 292 296 296 293 287 279 271
287 286 285 284 284 283 283 282 282 282 283 283 284 284 284 284 285 286 286 286 287 289 292 297 299 301 306 311 312 309 306 301 294 286 283 283 285 287 287 287 283 275
288 287 286 285 284 283 283 283 282 282 282 282 282 283 283 284 284 284 285 286 286 287 290 295 297 300 306 310 309 308 307 302 294 283 277 275 276 279 281 284 283 277
293 290 287 285 284 283 282 282 282 281 281 281 281 281 282 282 282 282 283 284 284 285 288 293 295 298 304 308 308 308 308 304 298 286 273 268 269 273 276 279 281 279
299 296 291 287 285 283 282 282 281 280 280 280 281 281 281 280 279 279 280 281 282 283 286 289 292 296 302 306 306 307 305 303 303 299 288 273 264 265 267 271 274 275
300 301 297 291 287 284 283 282 280 280 279 279 279 280 280 279 278 277 277 278 280 281 282 286 289 293 298 302 302 300 297 300 307 308 300 289 274 262 257 260 263 266
298 300 301 298 291 286 284 283 282 281 280 279 279 280 281 280 277 275 274 274 276 277 278 281 285 288 293 295 288 281 283 295 303 299 292 286 281 271 259 254 254 257
299 298 300 301 298 292 287 284 283 282 281 281 281 281 281 280 278 274 271 271 272 273 273 275 279 283 287 283 272 266 271 284 288 286 285 282 278 275 270 263 256 255
303 300 300 301 302 300 294 288 285 284 283 282 282 282 282 282 280 276 270 267 268 269 268 267 272 278 281 278 268 258 257 263 270 279 284 282 275 272 270 267 261 257
308 304 302 301 302 303 300 295 290 286 283 282 282 283 283 284 282 278 270 264 263 265 264 261 265 272 276 276 268 256 255 263 271 280 286 283 276 276 278 276 273 267
312 308 305 302 302 303 304 301 296 290 285 283 283 283 284 284 283 277 269 262 260 262 262 259 260 266 270 272 269 263 265 272 276 281 286 284 280 281 285 285 282 275
314 312 309 305 302 302 303 303 300 294 288 284 283 283 284 284 282 276 266 259 257 258 258 256 257 261 264 267 269 270 272 275 276 281 285 286 284 284 284 283 279 273